Location: Brno
(49.2000°N, 16.6330°E)
Time: 02:08:35
(UTC+02:00)

Cosmos 332 Rocket - Visible Passes

Search period start: 29 August 2016 00:00
Search period end: 08 September 2016 00:00
Orbit: 682 x 706 km, 74.0° (Epoch: 28 August)

Date Brightness Start Highest point End Pass type
(mag) Time Alt. Az. Time Alt. Az. Time Alt. Az.
29 Aug 6.5 00:40:38 10° WNW 00:43:10 14° NW 00:45:44 10° NNW visible
29 Aug 4.0 22:02:24 47° ESE 22:02:34 47° ESE 22:07:17 10° NNE visible
29 Aug 5.6 23:41:03 20° W 23:43:16 28° NW 23:47:30 10° N visible
30 Aug 5.2 21:03:21 19° ESE 21:03:45 19° E 21:07:09 10° NE visible
30 Aug 4.2 22:41:59 38° SW 22:43:42 63° WNW 22:48:37 10° NNE visible
31 Aug 6.6 00:22:58 10° WNW 00:25:14 13° NW 00:27:31 10° NNW visible
31 Aug 7.0 05:33:57 10° NNE 05:35:32 11° NE 05:37:07 10° ENE visible
31 Aug 3.9 21:42:38 33° SSE 21:44:31 52° ESE 21:49:18 10° NNE visible
31 Aug 5.8 23:21:14 10° WSW 23:25:17 26° NW 23:29:24 10° N visible
01 Sep 5.1 20:42:44 13° SE 20:45:40 21° E 20:49:17 10° NE visible
01 Sep 4.4 22:21:17 12° SW 22:25:41 58° WNW 22:30:35 10° NNE visible
02 Sep 6.8 00:05:21 10° WNW 00:07:18 12° NW 00:09:15 10° NNW visible
02 Sep 7.0 05:15:37 10° NNE 05:17:36 12° NE 05:19:35 10° ENE visible
02 Sep 3.8 21:21:40 10° S 21:26:28 58° ESE 21:31:18 10° NNE visible
02 Sep 6.0 23:03:19 10° WSW 23:07:18 24° NW 23:11:18 10° N visible
03 Sep 4.9 20:23:46 10° SSE 20:27:35 23° E 20:31:24 10° NE visible
03 Sep 4.6 22:02:54 10° SW 22:07:41 53° WNW 22:12:31 10° NNE visible
03 Sep 6.9 23:47:49 10° WNW 23:49:21 11° NW 23:50:55 10° NNW visible
04 Sep 7.0 04:57:21 10° NNE 04:59:40 13° NE 05:01:57 10° ENE visible
04 Sep 3.8 21:03:35 10° S 21:08:25 64° ESE 21:13:18 10° NNE visible
04 Sep 6.2 22:45:29 10° WSW 22:49:20 22° NW 22:53:12 10° N visible
05 Sep 6.2 05:37:23 10° N 05:41:38 28° NE 05:45:51 10° ESE visible
05 Sep 4.8 20:05:31 10° SSE 20:09:29 25° E 20:13:28 10° NE visible
05 Sep 4.8 21:44:56 10° SW 21:49:40 48° WNW 21:54:28 10° NNE visible
05 Sep 7.1 23:30:27 10° NW 23:31:25 11° NW 23:32:25 10° NNW visible
06 Sep 6.9 04:39:09 10° NNE 04:41:43 14° NE 04:44:18 10° ENE visible
06 Sep 3.7 20:45:30 10° SSW 20:50:22 70° ESE 20:55:17 10° NNE visible
06 Sep 6.4 22:27:40 10° W 22:31:21 21° NW 22:35:05 10° N visible
07 Sep 6.0 05:19:17 10° N 05:23:39 30° NE 05:27:58 10° ESE visible
07 Sep 5.0 21:26:58 10° SW 21:31:39 44° WNW 21:36:24 10° NNE visible
